Regional Weather Roundup
Issued by NWS Huntsville, AL

Home | Current Version | Previous Version | Text Only | Print | Product List | Glossary On
Versions: 1 2 3 4 5 6 7 8 9 10 11 12 13 14 15 16 17 18 19 20 21 22 23 24 25 26 27 28 29 30 31 32 33 34 35 36 37 38 39 40 41 42 43 44 45 46 47 48 49
990
ASUS44 KHUN 110610
RWRHUN

WEATHER ROUNDUP FOR THE TENNESSEE VALLEY
NATIONAL WEATHER SERVICE HUNTSVILLE AL
1200 AM CST THU FEB 11 2016

ALZ001>004-110700-
NORTHWEST ALABAMA

CITY           SKY/WX    TMP DP  RH WIND       PRES   REMARKS
SHOALS AIRPORT CLEAR     27  16  63 E6        30.17F WCI  20
6HR MIN TEMP:  26; 6HR MAX TEMP:  35;

SHOALS TVA RES   N/A     27 N/A N/A MISG        N/A
$$

ALZ005>007-016-110700-
NORTH CENTRAL ALABAMA

CITY           SKY/WX    TMP DP  RH WIND       PRES   REMARKS
CULLMAN AG STN   N/A     23 N/A N/A CALM        N/A
DECATUR AP     CLEAR     25  19  78 E5        30.17F WCI  19
6HR MIN TEMP:  23; 6HR MAX TEMP:  32;

HUNTSVILLE AP  CLEAR     27  17  66 E7        30.16F WCI  19
6HR MIN TEMP:  26; 6HR MAX TEMP:  33;

HUN NWS/UAH      N/A     28  16  62 NE2         N/A
MERIDIANVILLE  PTCLDY    28  19  69 CALM      30.17F
REDSTONE ARSN  CLEAR     26  18  71 E2        30.16F
VINEMONT AP    FAIR      27  12  52 CALM      30.15F
$$

ALZ008>010-110700-
NORTHEAST ALABAMA

CITY           SKY/WX    TMP DP  RH WIND       PRES   REMARKS
ALBERTVILLE    CLEAR     27  19  74 E5        30.13F WCI  21
FORT PAYNE     CLOUDY    30  16  55 CALM      30.16F
SCOTTSBORO AP  CLOUDY    32  16  51 CALM      30.18F
SCOTTSBORO HCN   N/A     30 N/A N/A MISG        N/A
VALLEY HEAD      N/A     30 N/A N/A MISG        N/A
$$

TNZ076-096-097-110700-
SOUTHEASTERN MIDDLE TENNESSEE

CITY           SKY/WX    TMP DP  RH WIND       PRES   REMARKS
TULLAHOMA      CLOUDY    25  21  86 CALM      30.15F
WINCHESTER     CLOUDY    27  21  80 CALM      30.16F
$$

...SURROUNDING SITES...

CITY           SKY/WX    TMP DP  RH WIND       PRES   REMARKS
ATLANTA        MOCLDY    32  11  41 NW7       30.16F WCI  26
ANNISTON       CLEAR     27  17  66 CALM      30.19F
BIRMINGHAM     CLEAR     30  17  58 CALM      30.19F
CHATTANOOGA    CLOUDY    30  17  58 CALM      30.18F
DALTON         NOT AVBL
GADSDEN        CLEAR     24  19  81 CALM      30.19F
GOLDEN TRNGL   CLEAR     34  19  55 E5        30.14F WCI  30
HALEYVILLE     FAIR      26  14  60 CALM      30.15F
JACKSON TN     CLEAR     26  11  52 E7        30.13F WCI  18
MEMPHIS        CLEAR     35  17  47 SE6       30.07F WCI  30
NASHVILLE      CLOUDY    26  20  77 E3        30.18F
OXFORD MS      FAIR      32  14  47 SE7       30.12F WCI  26
ROME           CLOUDY    32  15  49 CALM      30.17F
SAVANNAH       CLOUDY    27  14  59 CALM      30.13F
TUPELO         CLEAR     31  14  49 CALM      30.13F
TUSCALOOSA     CLEAR     29  20  69 CALM      30.19F
$$

...GULF COAST WEATHER...

CITY           SKY/WX    TMP DP  RH WIND       PRES   REMARKS
GULFPORT       CLEAR     48  34  58 W6        30.23S
PASCAGOULA     CLEAR     49  38  65 SW8       30.22S
MOBILE         CLEAR     45  37  73 SW9       30.21S
GULF SHORES    CLEAR     50  38  65 SW9       30.21S
PENSACOLA      CLEAR     49  35  58 W6        30.20F
DESTIN         CLEAR     56  39  53 W9G18     30.21F
PANAMA CITY    CLEAR     52  37  57 W10       30.23F
APPALACHICOLA  CLEAR     35  32  88 CALM      30.24S
$$





USA.gov is the U.S. government's official web portal to all federal, state and local government web resources and services.